Home > Weather > Tacoma > Past weeks

Flag for U.S.A. Weather for the Past 2 Weeks in Tacoma, Washington, U.S.A.

Now
46 °F

Clear.


Feels Like: 46 °F
Forecast: 43 / 58 °F
Wind: No wind

Location: Tacoma Narrows Airport

Current Time: Feb 7, 2016 at 6:48:06 PM

Latest Report: Feb 7, 2016 at 5:53 PM


Visibility: 10 mi

Pressure: 30.54 "Hg

Humidity: 68%

Dew point: 36 °F

Location of TacomaLocation

Historic Weather in Tacoma — Graph

°F

Tacoma Temperature Yesterday

Maximum temperature yesterday: 47 °F (at 2:53 PM)
Minimum temperature yesterday: 40 °F (at 6:53 PM)
Average temperature yesterday: 44 °F

High & Low Weather Summary for the Past Weeks

 TemperatureHumidityPressure
High56 °F (Feb 5, 3:53 PM)100% (Jan 27, 7:53 AM)30.56 "Hg (Jan 27, 7:53 AM)
Low34 °F (Feb 2, 7:53 AM)44% (Feb 5, 3:53 PM)29.61 "Hg (Jan 29, 8:53 AM)
Average45 °F87%30.14 "Hg
* Reported Jan 23 4:53 PM — Feb 7 4:53 PM, Tacoma, Weather by CustomWeather, © 2016

Note: Actual official high and low records may vary slightly from our data, if they occured in-between our weather recording intervals... More about our weather records

Advertising

Tacoma Weather History for the Previous 24 Hours

 ConditionsComfort  
Time TempWeatherWind HumidityBarometerVisibility
4:53 PM
Sun, Feb 7
48 °FBroken clouds.7 mph68%30.54 "Hg10 mi
3:53 PM48 °FScattered clouds.12 mph61%30.55 "Hg10 mi
2:53 PM49 °FPartly sunny.10 mph61%30.54 "Hg10 mi
1:53 PM49 °FScattered clouds.9 mph69%30.55 "Hg10 mi
12:53 PM49 °FScattered clouds.8 mph61%30.55 "Hg10 mi
11:53 AM48 °FScattered clouds.6 mph61%30.55 "Hg10 mi
10:53 AM44 °FBroken clouds.5 mph73%30.56 "Hg10 mi
9:53 AM42 °FBroken clouds.No wind85%30.56 "Hg10 mi
8:53 AM39 °FPartly sunny.No wind93%30.55 "Hg10 mi
7:53 AM39 °FPartly sunny.No wind100%30.55 "Hg10 mi
6:53 AM37 °FOvercast.5 mph96%30.54 "Hg7 mi
5:53 AM36 °FClear.3 mph100%30.52 "Hg10 mi
4:53 AM38 °FPassing clouds.5 mph97%30.51 "Hg7 mi
4:01 AM36 °FFog.3 mph100%30.53 "Hg1 mi
2:57 AM38 °FFog.No wind100%30.53 "Hg1 mi
1:53 AM36 °FFog.No wind100%30.52 "Hg1 mi
12:53 AM40 °FFog.No wind97%30.49 "Hg5 mi
11:53 PM
Sat, Feb 6
42 °FClear.No wind96%30.50 "Hg8 mi
10:53 PM42 °FClear.3 mph92%30.50 "Hg10 mi
9:53 PM42 °FPassing clouds.5 mph96%30.49 "Hg8 mi
8:53 PM40 °FClear.No wind97%30.48 "Hg10 mi
7:53 PM41 °FClear.No wind93%30.46 "Hg10 mi
6:53 PM40 °FClear.No wind97%30.47 "Hg10 mi
Weather by CustomWeather, © 2016

See weather overviewHow to use our weather pages